• In Czech Republic
  • List of Countries
  • For 7 days
  • Water Temperature
  • Satellite Maps
  • Weather Map
  • Weather Widgets
  • user-avatar
    Login

    Hourly Weather San Martin Xaltocan

    Today, 24 November, Friday

    Time Temperature Precipitation Wind Pressure Humidity
    00:00 +7°C° 0 mm 1 mps 566 mmHg 81%
    01:00 +7°C° 0 mm 1 mps 566 mmHg 80%
    02:00 +7°C° 0 mm 1 mps 565 mmHg 80%
    03:00 +6°C° 0 mm 1 mps 565 mmHg 79%
    04:00 +6°C° 0 mm 1 mps 565 mmHg 77%
    05:00 +6°C° 0 mm 1 mps 565 mmHg 76%
    06:00 +8°C° 0 mm 1 mps 566 mmHg 67%
    07:00 +10°C° 0 mm 1 mps 567 mmHg 58%
    08:00 +12°C° 0 mm 1 mps 568 mmHg 49%
    09:00 +13°C° 0 mm 1 mps 569 mmHg 42%
    10:00 +15°C° 0 mm 2 mps 569 mmHg 35%
    11:00 +17°C° 0 mm 2 mps 570 mmHg 29%
    12:00 +17°C° 0 mm 2 mps 570 mmHg 29%
    13:00 +18°C° 0 mm 2 mps 569 mmHg 29%
    14:00 +18°C° 0 mm 3 mps 569 mmHg 29%
    15:00 +16°C° 0 mm 2 mps 568 mmHg 37%
    16:00 +15°C° 0 mm 2 mps 567 mmHg 46%
    17:00 +13°C° 0 mm 1 mps 567 mmHg 54%
    18:00 +12°C° 0 mm 1 mps 567 mmHg 59%
    19:00 +11°C° 0 mm 1 mps 567 mmHg 64%
    20:00 +10°C° 0 mm 1 mps 567 mmHg 69%
    21:00 +10°C° 0 mm 1 mps 567 mmHg 70%
    22:00 +10°C° 0 mm 1 mps 567 mmHg 70%
    23:00 +9°C° 0 mm 1 mps 567 mmHg 71%

    Tomorrow, 25 November, Saturday

    Time Temperature Precipitation Wind Pressure Humidity
    00:00 +9°C° 0 mm 1 mps 566 mmHg 70%
    01:00 +9°C° 0 mm 1 mps 566 mmHg 70%
    02:00 +8°C° 0 mm 1 mps 565 mmHg 69%
    03:00 +8°C° 0 mm 1 mps 565 mmHg 67%
    04:00 +8°C° 0 mm 1 mps 565 mmHg 65%
    05:00 +7°C° 0 mm 1 mps 565 mmHg 63%
    06:00 +10°C° 0 mm 1 mps 567 mmHg 56%
    07:00 +12°C° 0 mm 1 mps 568 mmHg 48%
    08:00 +14°C° 0 mm 1 mps 569 mmHg 40%
    09:00 +15°C° 0 mm 1 mps 570 mmHg 35%
    10:00 +17°C° 0 mm 2 mps 571 mmHg 29%
    11:00 +19°C° 0 mm 2 mps 571 mmHg 24%
    12:00 +20°C° 0 mm 2 mps 571 mmHg 24%
    13:00 +20°C° 0 mm 2 mps 571 mmHg 24%
    14:00 +20°C° 0 mm 2 mps 570 mmHg 25%
    15:00 +18°C° 0 mm 2 mps 570 mmHg 33%
    16:00 +16°C° 0 mm 2 mps 569 mmHg 42%
    17:00 +14°C° 0 mm 2 mps 568 mmHg 50%
    18:00 +13°C° 0 mm 2 mps 568 mmHg 56%
    19:00 +12°C° 0 mm 1 mps 568 mmHg 61%
    20:00 +11°C° 0 mm 1 mps 569 mmHg 67%
    21:00 +11°C° 0 mm 1 mps 569 mmHg 67%
    22:00 +10°C° 0 mm 1 mps 568 mmHg 67%
    23:00 +10°C° 0 mm 1 mps 568 mmHg 66%

    Day after tomorrow, 26 November, Sunday

    Time Temperature Precipitation Wind Pressure Humidity
    00:00 +10°C° 0 mm 1 mps 568 mmHg 64%
    01:00 +8°C° 0 mm 2 mps 568 mmHg 61%
    02:00 +8°C° 0 mm 2 mps 567 mmHg 59%
    03:00 +7°C° 0 mm 2 mps 567 mmHg 56%
    04:00 +7°C° 0 mm 2 mps 567 mmHg 53%
    05:00 +6°C° 0 mm 2 mps 567 mmHg 50%
    06:00 +8°C° 0 mm 3 mps 569 mmHg 44%
    07:00 +10°C° 0 mm 3 mps 570 mmHg 39%
    08:00 +12°C° 0 mm 3 mps 571 mmHg 33%
    09:00 +13°C° 0 mm 4 mps 572 mmHg 31%
    10:00 +15°C° 0 mm 4 mps 572 mmHg 29%
    11:00 +16°C° 0 mm 5 mps 573 mmHg 27%
    12:00 +17°C° 0 mm 4 mps 572 mmHg 28%
    13:00 +17°C° 0 mm 4 mps 572 mmHg 29%
    14:00 +18°C° 0 mm 4 mps 571 mmHg 30%
    15:00 +16°C° 0 mm 3 mps 570 mmHg 38%
    16:00 +13°C° 0 mm 3 mps 569 mmHg 46%
    17:00 +11°C° 0 mm 3 mps 569 mmHg 54%
    18:00 +9°C° 0 mm 3 mps 569 mmHg 61%
    19:00 +8°C° 0 mm 3 mps 569 mmHg 69%
    20:00 +7°C° 0 mm 2 mps 569 mmHg 76%
    21:00 +7°C° 0 mm 2 mps 568 mmHg 76%
    22:00 +7°C° 0 mm 2 mps 568 mmHg 76%
    23:00 +6°C° 0 mm 2 mps 568 mmHg 76%

    27 November, Monday

    Time Temperature Precipitation Wind Pressure Humidity
    00:00 +6°C° 0 mm 2 mps 568 mmHg 76%
    01:00 +6°C° 0 mm 2 mps 567 mmHg 76%
    02:00 +5°C° 0 mm 2 mps 567 mmHg 77%
    03:00 +5°C° 0 mm 2 mps 567 mmHg 77%
    04:00 +5°C° 0 mm 2 mps 567 mmHg 78%
    05:00 +5°C° 0 mm 2 mps 567 mmHg 79%
    06:00 +6°C° 0 mm 2 mps 568 mmHg 72%
    07:00 +8°C° 0 mm 2 mps 569 mmHg 66%
    08:00 +10°C° 0 mm 2 mps 570 mmHg 59%
    09:00 +13°C° 0 mm 2 mps 571 mmHg 52%
    10:00 +15°C° 0 mm 2 mps 571 mmHg 45%
    11:00 +17°C° 0 mm 2 mps 571 mmHg 38%
    12:00 +17°C° 0 mm 2 mps 571 mmHg 37%
    13:00 +18°C° 0 mm 2 mps 570 mmHg 36%
    14:00 +18°C° 0 mm 2 mps 570 mmHg 35%
    15:00 +17°C° 0 mm 2 mps 569 mmHg 43%
    16:00 +15°C° 0 mm 2 mps 568 mmHg 52%
    17:00 +13°C° 0 mm 2 mps 568 mmHg 60%
    18:00 +12°C° 0 mm 2 mps 568 mmHg 65%
    19:00 +11°C° 0 mm 1 mps 568 mmHg 71%
    20:00 +11°C° 0 mm 1 mps 568 mmHg 77%
    21:00 +10°C° 0 mm 1 mps 567 mmHg 79%
    22:00 +10°C° 0 mm 1 mps 567 mmHg 81%
    23:00 +9°C° 0 mm 1 mps 567 mmHg 83%

    28 November, Tuesday

    Time Temperature Precipitation Wind Pressure Humidity
    00:00 +9°C° 0 mm 1 mps 566 mmHg 82%
    01:00 +8°C° 0 mm 1 mps 566 mmHg 82%
    02:00 +8°C° 0 mm 1 mps 565 mmHg 81%
    03:00 +8°C° 0 mm 1 mps 565 mmHg 79%
    04:00 +7°C° 0 mm 1 mps 565 mmHg 77%
    05:00 +7°C° 0 mm 1 mps 565 mmHg 75%
    06:00 +9°C° 0 mm 1 mps 566 mmHg 65%
    07:00 +11°C° 0 mm 1 mps 568 mmHg 55%
    08:00 +13°C° 0 mm 1 mps 569 mmHg 45%
    09:00 +15°C° 0 mm 1 mps 569 mmHg 38%
    10:00 +17°C° 0 mm 2 mps 570 mmHg 32%
    11:00 +19°C° 0 mm 2 mps 570 mmHg 25%
    12:00 +19°C° 0 mm 2 mps 570 mmHg 26%
    13:00 +20°C° 0 mm 2 mps 570 mmHg 27%
    14:00 +20°C° 0 mm 2 mps 569 mmHg 28%
    15:00 +18°C° 0 mm 2 mps 569 mmHg 37%
    16:00 +16°C° 0 mm 1 mps 568 mmHg 46%
    17:00 +14°C° 0 mm 1 mps 567 mmHg 54%
    18:00 +13°C° 0 mm 1 mps 567 mmHg 60%
    19:00 +11°C° 0 mm 0 mps 568 mmHg 65%
    20:00 +11°C° 0 mm 0 mps 568 mmHg 70%
    21:00 +10°C° 0 mm 0 mps 567 mmHg 71%
    22:00 +10°C° 0 mm 0 mps 567 mmHg 71%
    23:00 +10°C° 0 mm 1 mps 567 mmHg 71%

    29 November, Wednesday

    Time Temperature Precipitation Wind Pressure Humidity
    00:00 +10°C° 0 mm 1 mps 567 mmHg 71%
    01:00 +10°C° 0 mm 1 mps 566 mmHg 71%
    02:00 +9°C° 0 mm 1 mps 566 mmHg 70%
    03:00 +9°C° 0 mm 1 mps 566 mmHg 71%
    04:00 +9°C° 0 mm 1 mps 566 mmHg 72%
    05:00 +8°C° 0 mm 1 mps 566 mmHg 72%
    06:00 +10°C° 0 mm 1 mps 568 mmHg 66%
    07:00 +12°C° 0 mm 2 mps 569 mmHg 60%
    08:00 +14°C° 0 mm 2 mps 570 mmHg 54%
    09:00 +15°C° 0 mm 2 mps 571 mmHg 46%
    10:00 +17°C° 0 mm 2 mps 572 mmHg 38%
    11:00 +19°C° 0 mm 2 mps 572 mmHg 31%
    12:00 +19°C° 0 mm 3 mps 572 mmHg 32%
    13:00 +19°C° 0 mm 3 mps 571 mmHg 34%
    14:00 +19°C° 0 mm 3 mps 571 mmHg 35%
    15:00 +17°C° 0 mm 3 mps 570 mmHg 45%
    16:00 +14°C° 0 mm 3 mps 570 mmHg 55%
    17:00 +14°C° 0 mm 2 mps 569 mmHg 65%
    18:00 +13°C° 0 mm 2 mps 569 mmHg 70%
    19:00 +12°C° 0 mm 2 mps 569 mmHg 75%
    20:00 +10°C° 0 mm 2 mps 569 mmHg 80%
    21:00 +9°C° 0 mm 2 mps 569 mmHg 81%
    22:00 +9°C° 0 mm 2 mps 569 mmHg 83%
    23:00 +8°C° 0 mm 2 mps 568 mmHg 85%
    Show more